Tracking 20369 objects as of 17-Feb-2020
HD Live streaming from Space Station
objects crossing your sky now

COSMOS 304


10-day predictions
COSMOS 304 is classified as:


NORAD ID: 4138
Int'l Code: 1969-091A
Perigee: 737.4 km
Apogee: 754.2 km
Inclination: 74.0 °
Period: 99.6 minutes
Semi major axis: 7116 km
RCS: 1.933 m2 (large)
Launch date: October 21, 1969
Source: Commonwealth of Independent States (former USSR) (CIS)
Launch site: PLESETSK MISSILE AND SPACE COMPLEX (PKMTR)
aabbcc
Your satellite tracking list
Your tracking list is empty




NASA's NSSDC Master Catalog

Two Line Element Set (TLE):
1  4138U 69091A   20047.92389576 +.00000000 +00000-0 +75451-5 0  9990
2  4138 074.0376 225.8345 0011792 084.7370 275.5133 14.46015487653519
Source of the keplerian elements: AFSPC